Location: Valley View Observatory
(41.0081°N, 76.5874°W)
Time: 19:45:32
(UTC-05:00)

Daily predictions for brighter satellites

Satellite Brightness Start Highest point End
(mag) Time Altitude Azimuth Time Altitude Azimuth Time Altitude Azimuth
Cosmos 2154 Rocket 4.4 16:59:07 10° N 17:05:20 74° W 17:11:33 10° S
Cosmos 2263 Rocket 3.9 17:00:47 10° WSW 17:05:38 29° NW 17:10:33 10° N
PAYLOAD A 3.9 17:06:08 10° SSE 17:10:54 73° ENE 17:15:52 10° N
Cosmos 1536 Rocket 4.4 17:15:51 10° SSE 17:19:45 31° E 17:23:42 10° NNE
Tiangong 1 3.2 17:21:27 10° S 17:23:16 15° SSE 17:25:06 10° ESE
USA 234 3.4 17:17:26 10° NE 17:23:58 74° NW 17:30:28 10° WSW
SPOT 3 Rocket 3.5 17:19:50 10° SSE 17:24:59 69° ENE 17:30:09 10° N
Okean 1 4.2 17:23:19 10° SSE 17:26:52 30° E 17:30:27 10° NNE
Meteor 1-18 Rocket 4.4 17:22:27 10° SSE 17:27:51 51° E 17:33:24 10° NNE
YAOGAN 1 2.5 17:23:44 10° SSE 17:28:00 63° ENE 17:32:17 10° N
Cosmos 1536 4.0 17:24:25 10° NNW 17:28:20 47° W 17:32:14 10° SSW
Cosmos 1844 Rocket 2.8 17:25:09 10° SSW 17:30:44 79° WNW 17:36:24 10° NNE
Cosmos 1812 3.0 17:27:28 10° SSE 17:31:11 47° E 17:34:54 10° NNE
BREEZE M DEB (TANK) 4.1 17:21:45 10° SW 17:32:28 41° SSE 17:35:33 14° E
COSMOS 2487 3.9 17:33:42 10° NNE 17:36:20 19° ENE 17:38:37 12° ESE
EP 2 4.5 17:34:16 10° SSW 17:36:48 51° ESE 17:38:30 19° NE
AQUARIUS 4.1 17:32:42 10° SSE 17:37:12 87° ENE 17:41:44 10° NNW
USA 32 4.0 17:32:34 10° S 17:37:47 86° E 17:43:01 10° N
NOSS 3-3 (A) 4.2 17:32:03 10° SSW 17:38:00 54° ESE 17:44:00 12° NE
NOSS 3-3 (C) 4.2 17:32:10 10° SSW 17:38:06 54° ESE 17:44:05 12° NE
Meteor 2-19 Rocket 4.4 17:32:16 10° N 17:38:21 84° E 17:44:24 10° S
ISS -2.0 17:36:50 10° W 17:39:51 32° NNW 17:42:12 14° NNE
SL-8 Rocket 4.0 17:33:43 10° N 17:39:55 85° W 17:46:04 10° S
Cosmos 1346 Rocket 3.6 17:39:26 10° SSE 17:42:50 29° E 17:45:20 15° NE
IDEFIX/ARIANE 42P 2.7 17:40:19 10° S 17:45:31 82° WSW 17:50:44 10° NNW
CORIOLIS 4.2 17:40:32 10° SSE 17:45:57 90° E 17:51:23 10° NNW
ASTRO F (AKARI) 4.2 17:43:46 10° NNE 17:46:54 64° ESE 17:50:00 10° S
ATLAS 2AS CENTAUR R/B 3.0 17:38:50 10° NW 17:46:58 88° ENE 17:54:31 10° SSE
Cosmos 494 Rocket 3.9 17:41:54 10° NNW 17:47:10 75° ENE 17:52:25 10° SSE
Cosmos 1844 3.8 17:41:56 10° SSW 17:47:30 77° WNW 17:53:05 10° NNE
Cosmos 1455 Rocket 3.0 17:44:36 10° N 17:49:02 82° E 17:53:27 10° S
Cosmos 2297 4.4 17:44:58 10° SSE 17:49:52 31° ESE 17:53:05 18° NE
SKYMED 2 4.0 17:45:46 10° NNE 17:49:53 41° E 17:53:59 10° S
Cosmos 2366 rocket 4.0 17:44:47 10° N 17:51:11 86° E 17:57:29 10° S
CZ-3B DEB 2.2 17:51:16 10° WSW 17:54:53 75° NW 18:02:20 15° NE
Cosmos 2218 Rocket 4.2 17:49:30 10° N 17:55:48 78° W 18:01:59 10° S
MSX 3.8 17:52:27 10° SSE 17:58:13 86° ENE 18:03:59 10° NNW
Thor Agena Rocket 4.2 17:56:50 10° N 18:01:56 56° WNW 18:07:03 10° SSW
CZ-4 R/B 3.2 17:58:43 10° SSW 18:02:33 35° W 18:06:23 10° NNW
Cosmos 1809 Rocket 4.4 17:56:31 10° N 18:02:37 59° E 18:08:37 10° SSE
SMAP 4.0 17:58:55 10° S 18:03:25 50° W 18:07:58 10° NNW
Abrixas 3.9 18:01:09 10° NW 18:03:36 23° NNE 18:03:36 23° NNE
Cosmos 2278 Rocket 2.2 17:58:20 10° SSW 18:03:58 88° ESE 18:09:20 12° NNE
SL-24 DEB 4.2 17:59:59 10° N 18:04:45 81° E 18:09:27 10° S
Cosmos 1238 Rocket 3.5 18:04:31 10° SSW 18:07:17 39° W 18:10:10 10° N
OTV 4 3.5 18:06:37 10° SW 18:07:54 12° SSW 18:09:10 10° S
BREEZE-M R/B 4.2 17:57:55 10° WSW 18:09:10 87° NNW 18:12:20 27° NE
CZ-2C R/B 3.6 18:04:57 10° S 18:09:43 45° W 18:14:37 10° NNW
Timation 2 Rocket 4.3 18:03:29 10° NNW 18:10:07 51° ENE 18:16:48 10° SE
Cosmos 1975 2.8 18:07:17 10° N 18:11:23 85° W 18:15:25 10° S
Meteor 1-12 Rocket 4.5 18:06:26 10° NNW 18:12:13 75° W 18:18:04 10° S
Cosmos 2251 Rocket 4.3 18:08:34 10° NNW 18:13:47 55° WSW 18:18:56 10° S
Genesis I 3.0 18:18:18 10° NNW 18:22:14 68° NE 18:23:19 44° ESE
NOAA 12 4.1 18:20:20 10° SSE 18:25:29 56° ENE 18:30:38 10° N
Cosmos 1821 Rocket 4.0 18:20:05 10° N 18:26:00 49° ENE 18:31:52 10° SSE
OE (NEXTSAT) 4.2 18:22:30 10° WSW 18:26:04 81° SSE 18:26:20 73° E
Cosmos 1484 Rocket 3.3 18:25:05 10° S 18:28:47 57° W 18:32:28 10° NNW
TIMED 4.4 18:24:45 10° S 18:29:04 67° ESE 18:30:00 51° NE
SL-8 R/B 3.8 18:24:40 10° WSW 18:29:25 67° NNW 18:30:50 43° NE
Cosmos 2082 Rocket 2.2 18:24:02 10° NNW 18:29:37 57° ENE 18:33:41 19° SE
DMSP B5D1-3 4.4 18:25:25 13° NNE 18:30:02 82° ESE 18:35:10 10° SSW
Cosmos 1833 Rocket 2.8 18:25:45 10° NNW 18:31:14 50° ENE 18:33:05 36° ESE
Meteor 1-13 Rocket 4.1 18:25:52 10° S 18:31:30 78° E 18:37:11 11° NNE
Meteor 2-21 4.5 18:26:34 10° N 18:32:47 82° W 18:38:53 10° S
METEOR-M 4.1 18:28:23 10° SSE 18:33:35 56° ENE 18:38:49 10° N
NOSS 2-1 (D) 3.9 18:30:31 10° SSW 18:33:30 41° SSE 18:33:30 41° SSE
NOSS 2-1 (C) 3.9 18:31:12 10° SSW 18:34:09 40° SSE 18:34:09 40° SSE
COSMO-SKYMED 1 3.2 18:34:05 12° N 18:37:56 56° WNW 18:42:11 10° SSW
Cosmos 1500 4.4 18:37:50 10° NNW 18:41:29 43° W 18:45:07 10° SSW
Meteor 1-23 Rocket 4.4 18:38:07 10° SSE 18:43:21 49° ESE 18:43:21 49° ESE
Meteor 1-28 Rocket 3.3 18:45:29 73° NW 18:45:37 74° WNW 18:49:24 10° SSW
Nadezhda 3 Rocket 4.2 18:42:24 10° SSW 18:48:34 70° W 18:54:50 10° N
NOSS 2-1 (E) 4.2 18:49:35 10° SSW 18:52:08 40° S 18:52:08 40° S
Timation 1 Rocket 4.2 18:47:44 10° SSW 18:53:41 86° ESE 18:55:27 49° NNE
GEOS 3 Rocket 3.8 18:53:31 22° SSE 18:56:52 68° WSW 19:01:58 10° NW
Meteor 2-4 Rocket 3.4 18:53:03 10° S 18:58:26 77° E 18:58:30 77° E
Tiangong 1 3.6 18:56:06 10° WSW 18:57:12 20° WSW 18:57:12 20° WSW
Cosmos 2056 Rocket 4.4 18:57:30 10° S 19:00:49 36° SSE 19:00:49 36° SSE
Cosmos 1025 Rocket 4.2 19:04:45 10° SSW 19:07:27 37° SSW 19:07:27 37° SSW
ATLAS 3B CENTAUR R/B 4.0 18:58:18 10° WSW 19:12:57 37° SSW 19:15:57 28° SSE
Cosmos 921 Rocket 4.1 19:10:56 10° SW 19:14:34 42° W 19:14:34 42° W
Cosmos 1371 Rocket 4.4 19:15:38 10° SSW 19:20:09 62° SW 19:20:09 62° SW
BREEZE M DEB (TANK) 3.8 19:16:52 10° NW 19:21:18 72° NNE 19:21:54 69° ENE
NOSS 3-4 (A) 3.8 19:15:40 10° NNW 19:21:59 64° NNE 19:21:59 64° NNE
NOSS 3-4 (C) 3.8 19:15:47 10° NNW 19:22:03 63° NNE 19:22:03 63° NNE
Cosmos 2082 Rocket 4.5 20:09:14 10° NW 20:13:12 20° W 20:15:50 15° SW
CZ-3B DEB 4.4 20:25:39 10° WNW 20:30:57 37° NNW 20:30:57 37° NNW
